Location: Unspecified
(42.3650°N, 71.1030°W)
Time: 14:36:09
(UTC+00:00)

NOAA 16 DEB - Visible Passes

Search period start: 14 September 2024 00:00
Search period end: 24 September 2024 00:00
Orbit: 727 x 763 km, 98.9° (Epoch: 13 September)

Date Brightness Start Highest point End Pass type
(mag) Time Alt. Az. Time Alt. Az. Time Alt. Az.
14 Sep ? 05:42:34 14° NNE 05:42:34 14° NNE 05:43:32 10° NNE visible
14 Sep ? 07:22:21 12° NNW 07:22:21 12° NNW 07:22:44 10° NNW visible
15 Sep ? 06:39:15 16° N 06:39:15 16° N 06:40:10 10° N visible
16 Sep ? 05:56:01 14° NNE 05:56:01 14° NNE 05:56:50 10° N visible
17 Sep ? 06:52:24 13° NNW 06:52:24 13° NNW 06:52:53 10° NNW visible
18 Sep ? 06:08:52 13° N 06:08:52 13° N 06:09:27 10° N visible
19 Sep ? 07:04:57 10° NNW 07:04:57 10° NNW 07:04:58 10° NNW visible
20 Sep ? 06:21:08 11° N 06:21:08 11° N 06:21:24 10° N visible
